Weather History for CWEW - June, 2013

Change the Weather History Date:

Friday, June 14, 2013

  Actual Average Record
Temperature  
Mean Temperature 66 °F -  
Max Temperature 78 °F - - ()
Min Temperature 53 °F - - ()
Growing Degree Days 16 (Base 50)    
Moisture  
Dew Point 50 °F    
Average Humidity 59    
Maximum Humidity 92    
Minimum Humidity 21    
Precipitation  
Precipitation 0.00 in - - ()
Sea Level Pressure  
Sea Level Pressure 29.78 in    
Wind  
Wind Speed 5 mph ()    
Max Wind Speed 10 mph    
Max Gust Speed -    
T = Trace of Precipitation, MM = Missing Value Source: Averaged Metar Reports

Daily Weather History Graph

Daily Weather History Graph

Search for Another Location

Airport or City:

Trip Planner

Search our weather history database for the weather conditions in past years. The results will help you decide how hot, cold, wet, or windy it might be!

Date:

Astronomy

Jun. 14, 2013 Rise Set
Actual Time 5:03 AM EDT 8:45 PM EDT
Civil Twilight 4:24 AM EDT 9:23 PM EDT
Nautical Twilight 3:33 AM EDT 10:14 PM EDT
Astronomical Twilight 2:23 AM EDT 11:25 PM EDT
Moon 10:51 AM EDT (6/14) No Moon Set
Length of Visible Light 16h 58m
Length of Day
15h 42m
Waxing Crescent, 30% of the Moon is Illuminated
Jun 14
Waxing Crescent
Jun 16
First Quarter
Jun 23
Full
Jun 30
Last Quarter
Jul 8
New

Hourly Weather History & Observations

Time (EDT) Temp. Dew Point Humidity Pressure Visibility Wind Dir Wind Speed Gust Speed Precip Events Conditions
12:00 AM 58.6 °F 54.1 °F 85% 29.73 in - SW 3.5 mph - N/A   Unknown
1:00 AM 59.2 °F 53.6 °F 82% 29.75 in - ENE 3.5 mph - N/A   Unknown
2:00 AM 56 °F 53 °F 85% 29.73 in - West 2.3 mph - -  
2:00 AM 55.8 °F 52.7 °F 89% 29.73 in - West 2.3 mph - N/A   Unknown
3:00 AM 54.0 °F 51.8 °F 92% 29.72 in - North 2.3 mph - N/A   Unknown
4:00 AM 55.4 °F 52.0 °F 88% 29.73 in - North 3.5 mph - N/A   Unknown
5:00 AM 56.5 °F 51.8 °F 84% 29.75 in - North 5.8 mph - N/A   Unknown
6:00 AM 56.5 °F 51.8 °F 84% 29.78 in - North 4.6 mph - N/A   Unknown
7:00 AM 59.4 °F 53.2 °F 80% 29.78 in - NNW 3.5 mph - N/A   Unknown
8:00 AM 64 °F 54 °F 62% 29.79 in - North 5.8 mph - -  
8:00 AM 63.9 °F 54.1 °F 71% 29.79 in - North 5.8 mph - N/A   Unknown
9:00 AM 63.9 °F 54.9 °F 72% 29.80 in - North 3.5 mph - N/A   Unknown
10:00 AM 65.5 °F 55.8 °F 71% 29.81 in - NNW 5.8 mph - N/A   Unknown
11:00 AM 69.4 °F 54.1 °F 58% 29.80 in - North 9.2 mph - N/A   Unknown
12:00 PM 73.0 °F 54.3 °F 52% 29.79 in - North 9.2 mph - N/A   Unknown
1:00 PM 73.9 °F 56.3 °F 54% 29.78 in - NNW 5.8 mph - N/A   Unknown
2:00 PM 76 °F 53 °F 35% 29.78 in - NNW 9.2 mph - -  
2:00 PM 75.6 °F 53.4 °F 46% 29.78 in - NNW 9.2 mph - N/A   Unknown
3:00 PM 77.5 °F 54.9 °F 45% 29.78 in - NNW 8.1 mph - N/A   Unknown
4:00 PM 77.5 °F 49.8 °F 38% 29.77 in - NNW 9.2 mph - N/A   Unknown
5:00 PM 77.9 °F 44.2 °F 30% 29.77 in - North 9.2 mph - N/A   Unknown
6:00 PM 76.8 °F 43.5 °F 30% 29.78 in - NNW 9.2 mph - N/A   Unknown
7:00 PM 74.5 °F 43.7 °F 33% 29.80 in - NNW 10.4 mph - N/A   Unknown
8:00 PM 71 °F 39 °F 21% 29.82 in - NNW 8.1 mph - -  
8:00 PM 70.7 °F 39.4 °F 32% 29.82 in - NNW 8.1 mph - N/A   Unknown
9:00 PM 65.5 °F 40.8 °F 41% 29.83 in - NNW 4.6 mph - N/A   Unknown
10:00 PM 63.0 °F 40.5 °F 44% 29.86 in - NNW 3.5 mph - N/A   Unknown
11:00 PM 60.6 °F 40.8 °F 48% 29.88 in - NNW 4.6 mph - N/A   Unknown